CW7408 Weather Reports


time (UTC)temp
F
wind
direction
speed
knots
gust
knots
rain 1hr
in
rain 24hr
in
rain mn
in
humidity
%
barometer
mb
20210518200831 80 5 0.0 0.0 0.00 0.00 0.00 23 1018.9
20210518200317 79 5 0.0 0.0 0.00 0.00 0.00 23 1018.9
20210518195826 78 5 0.0 0.9 0.00 0.00 0.00 25 1019.0
20210518193319 77 5 0.0 0.9 0.00 0.00 0.00 25 1019.1
20210518192826 77 5 0.0 0.9 0.00 0.00 0.00 25 1019.1
20210518192331 78 5 0.0 0.9 0.00 0.00 0.00 24 1019.1
20210518191821 77 5 0.0 0.0 0.00 0.00 0.00 26 1019.1
20210518191325 77 5 0.0 0.0 0.00 0.00 0.00 26 1019.1
20210518190832 77 5 0.0 0.0 0.00 0.00 0.00 24 1019.1
20210518190318 77 5 0.0 0.0 0.00 0.00 0.00 28 1019.0
20210518185825 76 5 0.0 0.0 0.00 0.00 0.00 25 1019.0
20210518185332 76 5 0.0 0.0 0.00 0.00 0.00 27 1019.0
20210518184818 76 5 0.0 0.0 0.00 0.00 0.00 26 1019.1
20210518184326 75 5 0.0 0.0 0.00 0.00 0.00 26 1019.1
20210518183832 75 5 0.0 0.9 0.00 0.00 0.00 26 1019.2
20210518183319 75 5 0.0 0.9 0.00 0.00 0.00 26 1019.2
20210518182828 75 5 0.0 0.0 0.00 0.00 0.00 27 1019.2
20210518182333 75 5 0.0 0.9 0.00 0.00 0.00 26 1019.1
20210518181819 75 5 0.0 0.9 0.00 0.00 0.00 24 1019.2
20210518181326 75 5 0.0 0.0 0.00 0.00 0.00 25 1019.1
20210518180833 74 5 0.0 0.0 0.00 0.00 0.00 26 1019.1
20210518180318 74 5 0.0 0.9 0.00 0.00 0.00 26 1019.1
20210518175826 74 5 0.0 0.9 0.00 0.00 0.00 26 1019.1
20210518175331 74 5 0.0 0.0 0.00 0.00 0.00 26 1019.1
20210518174835 74 5 0.0 0.0 0.00 0.00 0.00 24 1019.1
20210518174320 73 5 0.0 0.0 0.00 0.00 0.00 25 1019.1
20210518173830 73 5 0.0 0.0 0.00 0.00 0.00 23 1019.1
20210518173317 73 5 0.0 0.0 0.00 0.00 0.00 21 1019.2
20210518172823 72 5 0.0 1.7 0.00 0.00 0.00 23 1019.1
20210518172329 71 5 0.0 1.7 0.00 0.00 0.00 23 1019.1
20210518171835 70 5 0.0 7.0 0.00 0.00 0.00 25 1019.1
20210518171321 70 5 0.0 2.6 0.00 0.00 0.00 25 1018.9
20210518170827 69 5 0.0 7.8 0.00 0.00 0.00 25 1019.0
20210518170333 69 5 1.7 8.7 0.00 0.00 0.00 25 1019.0
20210518165819 69 5 0.9 8.7 0.00 0.00 0.00 25 1018.8
20210518165323 69 5 0.9 7.0 0.00 0.00 0.00 24 1018.9
20210518164833 69 5 3.5 7.0 0.00 0.00 0.00 24 1018.9
20210518164320 69 5 0.9 4.3 0.00 0.00 0.00 26 1018.9
20210518163825 69 5 0.9 11.3 0.00 0.00 0.00 26 1018.9
20210518163331 69 5 2.6 11.3 0.00 0.00 0.00 26 1018.9
20210518162817 68 5 0.0 4.3 0.00 0.00 0.00 26 1018.9
20210518162323 68 5 0.0 7.8 0.00 0.00 0.00 26 1019.0
20210518161828 68 5 0.0 2.6 0.00 0.00 0.00 27 1018.9
20210518161335 68 5 0.0 0.0 0.00 0.00 0.00 30 1018.9
20210518160821 67 5 0.0 0.0 0.00 0.00 0.00 33 1018.9
20210518160327 66 5 0.0 0.0 0.00 0.00 0.00 31 1018.9
20210518155817 65 5 0.0 0.0 0.00 0.00 0.00 37 1019.0
20210518155322 64 5 0.0 0.9 0.00 0.00 0.00 38 1018.9
20210518154827 63 5 0.0 0.9 0.00 0.00 0.00 38 1018.9
20210518154332 62 5 0.0 0.0 0.00 0.00 0.00 44 1018.9
20210518153818 61 5 0.0 0.0 0.00 0.00 0.00 49 1018.9
20210518153325 60 5 0.0 7.0 0.00 0.00 0.00 48 1018.8
20210518152830 59 5 0.9 7.0 0.00 0.00 0.00 41 1018.7
20210518152316 57 5 0.0 0.0 0.00 0.00 0.00 48 1018.7
20210518151821 57 5 0.0 0.0 0.00 0.00 0.00 51 1018.7
20210518151327 56 5 0.0 0.0 0.00 0.00 0.00 49 1018.7
20210518150817 55 5 0.0 0.0 0.00 0.00 0.00 50 1018.6
20210518150321 54 5 0.0 0.0 0.00 0.00 0.00 55 1018.7
20210518145827 53 5 0.0 0.0 0.00 0.00 0.00 55 1018.6
20210518145331 52 5 0.0 0.0 0.00 0.00 0.00 55 1018.6
20210518144818 51 5 0.0 0.0 0.00 0.00 0.00 59 1018.5
20210518144325 50 5 0.0 0.0 0.00 0.00 0.00 60 1018.5
20210518143831 50 5 0.0 0.0 0.00 0.00 0.00 59 1018.5
20210518143318 50 5 0.0 0.0 0.00 0.00 0.00 61 1018.5
20210518142825 49 5 0.0 0.0 0.00 0.00 0.00 60 1018.3
20210518142331 49 5 0.0 0.0 0.00 0.00 0.00 62 1018.3
20210518141816 49 5 0.0 0.0 0.00 0.00 0.00 61 1018.3
20210518141323 49 5 0.0 0.0 0.00 0.00 0.00 61 1018.3
20210518140829 49 5 0.0 0.0 0.00 0.00 0.00 60 1018.3
20210518140335 48 5 0.0 0.0 0.00 0.00 0.00 60 1018.3
20210518135822 48 5 0.0 0.0 0.00 0.00 0.00 60 1018.3
20210518135327 48 5 0.0 0.0 0.00 0.00 0.00 60 1018.2
20210518134832 48 5 0.0 0.0 0.00 0.00 0.00 60 1018.1
20210518134317 48 5 0.0 0.0 0.00 0.00 0.00 59 1018.1
20210518133822 48 5 0.0 0.0 0.00 0.00 0.00 59 1018.1
20210518133328 48 5 0.0 0.0 0.00 0.00 0.00 58 1018.1
20210518132819 48 5 0.0 0.0 0.00 0.00 0.00 57 1018.1
20210518132324 47 5 0.0 0.0 0.00 0.00 0.00 56 1018.1
20210518131830 47 5 0.0 0.0 0.00 0.00 0.00 56 1018.0
20210518131336 47 5 0.0 0.0 0.00 0.00 0.00 56 1017.9
20210518130822 47 5 0.0 0.0 0.00 0.00 0.00 55 1017.9
20210518130328 47 5 0.0 0.0 0.00 0.00 0.00 55 1017.9
20210518125834 47 5 0.0 0.0 0.00 0.00 0.00 54 1017.8
20210518125320 47 5 0.0 0.0 0.00 0.00 0.00 54 1017.7
20210518124827 47 5 0.0 0.0 0.00 0.00 0.00 54 1017.7
20210518124319 47 5 0.0 0.0 0.00 0.00 0.00 54 1017.8
20210518123823 47 5 0.0 0.0 0.00 0.00 0.00 53 1017.7
20210518123330 47 5 0.0 0.0 0.00 0.00 0.00 54 1017.7
20210518122836 47 5 0.0 0.0 0.00 0.00 0.00 53 1017.7
20210518122322 47 5 0.0 0.0 0.00 0.00 0.00 53 1017.7
20210518121829 47 5 0.0 0.0 0.00 0.00 0.00 53 1017.7
20210518121333 47 5 0.0 0.0 0.00 0.00 0.00 53 1017.6
20210518120819 47 5 0.0 0.0 0.00 0.00 0.00 53 1017.6
20210518120325 47 5 0.0 0.0 0.00 0.00 0.00 52 1017.6
20210518115831 47 5 0.0 0.0 0.00 0.00 0.00 52 1017.7
20210518115321 47 5 0.0 0.0 0.00 0.00 0.00 51 1017.6
20210518114827 47 5 0.0 0.0 0.00 0.00 0.00 51 1017.7
20210518114332 47 5 0.0 0.0 0.00 0.00 0.00 51 1017.9
20210518113819 47 5 0.0 0.0 0.00 0.00 0.00 51 1017.9
20210518113325 48 5 0.0 0.0 0.00 0.00 0.00 51 1018.0
20210518112831 48 5 0.0 0.0 0.00 0.00 0.00 51 1018.0
20210518112319 48 5 0.0 0.0 0.00 0.00 0.00 50 1017.9
20210518111825 48 5 0.0 0.0 0.00 0.00 0.00 50 1017.9
20210518111330 48 5 0.0 0.0 0.00 0.00 0.00 49 1017.8
20210518110835 48 5 0.0 0.0 0.00 0.00 0.00 49 1017.8
20210518110326 49 5 0.0 0.0 0.00 0.00 0.00 49 1017.9
20210518105831 49 5 0.0 0.0 0.00 0.00 0.00 48 1017.9
20210518105317 49 5 0.0 0.0 0.00 0.00 0.00 47 1018.0
20210518104822 49 5 0.0 0.0 0.00 0.00 0.00 47 1017.9
20210518104328 50 5 0.0 0.0 0.00 0.00 0.00 46 1018.0
20210518103834 50 5 0.0 0.0 0.00 0.00 0.00 46 1017.9
20210518103319 50 5 0.0 0.0 0.00 0.00 0.00 46 1018.0
20210518102825 51 5 0.0 0.0 0.00 0.00 0.00 45 1018.0
20210518102330 51 5 0.0 0.0 0.00 0.00 0.00 45 1017.9
20210518101835 51 5 0.0 0.0 0.00 0.00 0.00 44 1018.0
20210518101326 52 5 0.0 0.0 0.00 0.00 0.00 43 1018.0
20210518100834 52 5 0.0 0.0 0.00 0.00 0.00 43 1018.0
20210518100320 53 5 0.0 0.0 0.00 0.00 0.00 42 1018.0
20210518095826 53 5 0.0 0.0 0.00 0.00 0.00 42 1018.1
20210518095332 54 5 0.0 2.6 0.00 0.00 0.00 41 1018.1
20210518094817 54 5 0.0 3.5 0.00 0.00 0.00 40 1018.0
20210518094322 54 5 0.0 0.0 0.00 0.00 0.00 39 1018.0
20210518093825 54 5 0.0 0.0 0.00 0.00 0.00 40 1018.0
20210518093332 54 5 0.0 0.0 0.00 0.00 0.00 38 1017.9
20210518092817 54 5 0.0 0.0 0.00 0.00 0.00 38 1018.0
20210518092319 54 5 0.0 2.6 0.00 0.00 0.00 39 1018.1
20210518091825 54 5 0.0 2.6 0.00 0.00 0.00 38 1018.0
20210518091330 55 5 0.0 0.0 0.00 0.00 0.00 38 1018.0
20210518090818 55 5 0.0 0.0 0.00 0.00 0.00 38 1018.1
20210518090324 55 5 0.0 0.0 0.00 0.00 0.00 39 1018.2
20210518085829 55 5 0.0 0.0 0.00 0.00 0.00 39 1018.1
20210518085334 56 5 0.0 0.0 0.00 0.00 0.00 38 1018.2
20210518084820 56 5 0.0 0.0 0.00 0.00 0.00 37 1018.3
20210518084327 56 5 0.0 0.0 0.00 0.00 0.00 36 1018.3
20210518083834 56 5 0.0 0.0 0.00 0.00 0.00 36 1018.3
20210518083325 56 5 0.0 0.0 0.00 0.00 0.00 36 1018.5
20210518082830 56 5 0.0 4.3 0.00 0.00 0.00 36 1018.5
20210518082336 56 5 0.9 4.3 0.00 0.00 0.00 34 1018.5
20210518081820 56 5 0.0 0.0 0.00 0.00 0.00 35 1018.5
20210518081327 56 5 0.0 0.0 0.00 0.00 0.00 35 1018.5
20210518080832 56 5 0.0 0.0 0.00 0.00 0.00 36 1018.7
20210518080317 56 5 0.0 0.0 0.00 0.00 0.00 36 1018.8
20210518075820 56 5 0.0 0.0 0.00 0.00 0.00 36 1018.9
20210518075326 56 5 0.0 4.3 0.00 0.00 0.00 37 1018.9
20210518074831 56 5 0.0 4.3 0.00 0.00 0.00 36 1019.1
20210518074322 56 5 0.0 4.3 0.00 0.00 0.00 37 1019.3
20210518073827 55 5 0.9 4.3 0.00 0.00 0.00 37 1019.3
20210518073332 55 5 0.0 1.7 0.00 0.00 0.00 38 1019.3
20210518072819 55 5 0.0 0.0 0.00 0.00 0.00 38 1019.5
20210518072324 55 5 0.0 0.0 0.00 0.00 0.00 39 1019.6
20210518071830 55 5 0.0 0.0 0.00 0.00 0.00 38 1019.7
20210518071334 55 5 0.0 0.0 0.00 0.00 0.00 38 1019.7
20210518070818 55 5 0.0 0.0 0.00 0.00 0.00 38 1019.7
20210518070322 55 5 0.0 0.0 0.00 0.00 0.00 41 1019.8
20210518065828 55 5 0.0 0.0 0.00 0.00 0.00 40 1019.8
20210518065317 55 5 0.0 0.0 0.00 0.00 0.00 40 1019.8
20210518064822 54 5 0.0 0.9 0.00 0.00 0.00 42 1019.9
20210518064329 54 5 0.0 1.7 0.00 0.00 0.00 41 1019.9
20210518063833 54 5 0.0 1.7 0.00 0.00 0.00 42 1019.9
20210518063318 54 5 0.0 1.7 0.00 0.00 0.00 45 1019.9
20210518062823 54 5 0.0 1.7 0.00 0.00 0.00 42 1019.9
20210518062327 53 5 0.0 0.0 0.00 0.00 0.00 42 1019.9
20210518061834 53 5 0.0 0.0 0.00 0.00 0.00 46 1020.0
20210518061320 53 5 0.0 0.0 0.00 0.00 0.00 47 1019.9
20210518060827 53 5 0.0 0.0 0.00 0.00 0.00 49 1020.0
20210518060317 53 5 0.0 0.9 0.00 0.00 0.00 48 1019.8
20210518055822 53 5 0.0 0.9 0.00 0.00 0.00 48 1019.9
20210518055327 53 5 0.0 0.0 0.00 0.00 0.00 51 1020.1
20210518054833 53 5 0.0 0.0 0.00 0.00 0.00 49 1019.9
20210518054318 53 5 0.0 0.0 0.00 0.00 0.00 53 1019.9
20210518053823 53 5 0.0 0.0 0.00 0.00 0.00 55 1019.8
20210518053328 53 5 0.0 0.0 0.00 0.00 0.00 56 1019.7
20210518052832 53 5 0.0 0.0 0.00 0.00 0.00 56 1019.7
20210518052318 53 5 0.0 0.0 0.00 0.00 0.00 56 1019.6
20210518051823 53 5 0.0 0.0 0.00 0.00 0.00 55 1019.6
20210518051329 53 5 0.0 0.0 0.00 0.00 0.00 56 1019.7
20210518050820 54 5 0.0 0.0 0.00 0.00 0.00 55 1019.6
20210518050327 54 5 0.0 0.0 0.00 0.00 0.00 55 1019.7
20210518045832 54 5 0.0 0.0 0.00 0.00 0.00 56 1019.6
20210518045319 54 5 0.0 0.0 0.00 0.00 0.00 56 1019.6
20210518044824 53 5 0.0 0.0 0.00 0.00 0.00 56 1019.6
20210518044329 53 5 0.0 0.0 0.00 0.00 0.00 57 1019.5
20210518043835 53 5 0.0 0.0 0.00 0.00 0.00 58 1019.4
20210518043319 53 5 0.0 0.0 0.00 0.00 0.00 58 1019.4
20210518042825 53 5 0.0 0.0 0.00 0.00 0.00 58 1019.3
20210518042330 53 5 0.0 0.0 0.00 0.00 0.00 59 1019.3
20210518041819 52 5 0.0 0.0 0.00 0.00 0.00 59 1019.2
20210518041325 52 5 0.0 0.0 0.00 0.00 0.00 61 1019.3
20210518040829 52 5 0.0 0.0 0.00 0.00 0.00 62 1019.3
20210518040334 52 5 0.0 0.0 0.00 0.00 0.00 62 1019.3
20210518035820 52 5 0.0 0.0 0.00 0.00 0.00 61 1019.2
20210518035325 52 5 0.0 0.0 0.00 0.00 0.00 62 1019.2
20210518034830 53 5 0.0 0.0 0.00 0.00 0.00 62 1019.2
20210518034317 53 5 0.0 0.0 0.00 0.00 0.00 62 1019.1
20210518033821 53 5 0.0 0.0 0.00 0.00 0.00 63 1019.1
20210518033326 53 5 0.0 0.0 0.00 0.00 0.00 63 1019.1
20210518032836 53 5 0.0 0.0 0.00 0.00 0.00 63 1019.1
20210518032321 53 5 0.0 0.0 0.00 0.00 0.00 64 1018.9
20210518031827 53 5 0.0 0.0 0.00 0.00 0.00 65 1019.0
20210518031334 54 5 0.0 0.0 0.00 0.00 0.00 65 1019.0
20210518030820 54 5 0.0 0.0 0.00 0.00 0.00 65 1019.0
20210518030325 54 5 0.0 0.0 0.00 0.00 0.00 65 1019.0
20210518025831 54 5 0.0 0.0 0.00 0.00 0.00 65 1018.9
20210518025317 54 5 0.0 0.0 0.00 0.00 0.00 65 1018.8
20210518024824 54 5 0.0 0.0 0.00 0.00 0.00 66 1018.8
20210518024329 55 5 0.0 0.0 0.00 0.00 0.00 68 1018.8
20210518023820 55 5 0.0 0.0 0.00 0.00 0.00 68 1018.9
20210518023326 55 5 0.0 0.0 0.00 0.00 0.00 68 1018.8
20210518022833 55 5 0.0 2.6 0.00 0.00 0.00 70 1018.9
20210518022317 55 5 0.9 2.6 0.00 0.00 0.00 69 1018.8
20210518021822 55 5 0.0 0.0 0.00 0.00 0.00 68 1018.8
20210518021327 56 5 0.0 0.0 0.00 0.00 0.00 68 1018.9
20210518020833 56 5 0.0 0.0 0.00 0.00 0.00 67 1018.9
20210518020318 57 5 0.0 0.0 0.00 0.00 0.00 66 1018.7
20210518015824 57 5 0.0 0.0 0.00 0.00 0.00 65 1018.7
20210518015330 58 5 0.0 0.0 0.00 0.00 0.00 63 1018.7
20210518014819 58 5 0.0 0.0 0.00 0.00 0.00 62 1018.7
20210518014324 59 5 0.0 0.0 0.00 0.00 0.00 61 1018.8
20210518013829 59 5 0.0 0.0 0.00 0.00 0.00 59 1018.7
20210518013335 59 5 0.0 0.0 0.00 0.00 0.00 59 1018.7
20210518012821 59 5 0.0 0.0 0.00 0.00 0.00 59 1018.6
20210518012327 60 5 0.0 0.0 0.00 0.00 0.00 58 1018.6
20210518011833 60 5 0.0 0.0 0.00 0.00 0.00 57 1018.6
20210518011317 61 5 0.0 0.0 0.00 0.00 0.00 56 1018.6
20210518010822 61 5 0.0 0.0 0.00 0.00 0.00 55 1018.5
20210518010329 61 5 0.0 0.0 0.00 0.00 0.00 52 1018.5
20210518005818 61 5 0.0 0.9 0.00 0.00 0.00 48 1018.5
20210518005324 61 5 0.0 0.9 0.00 0.00 0.00 48 1018.6
20210518004831 61 5 0.0 0.0 0.00 0.00 0.00 47 1018.5
20210518004317 62 5 0.0 0.0 0.00 0.00 0.00 47 1018.6
20210518003823 62 5 0.0 0.0 0.00 0.00 0.00 47 1018.5
20210518003329 62 5 0.0 0.0 0.00 0.00 0.00 49 1018.5
20210518002834 63 5 0.0 0.0 0.00 0.00 0.00 49 1018.6
20210518002318 63 5 0.0 0.0 0.00 0.00 0.00 52 1018.6
20210518001824 64 5 0.0 0.0 0.00 0.00 0.00 50 1018.6
20210518001328 64 5 0.0 0.0 0.00 0.00 0.00 51 1018.7
20210518000817 64 5 0.0 0.0 0.00 0.00 0.00 51 1018.7
20210518000324 65 5 0.0 0.0 0.00 0.00 0.00 51 1018.6
20210517235822 65 5 0.0 0.0 0.00 0.00 0.00 50 1018.6
20210517235328 66 5 0.0 0.0 0.00 0.00 0.00 48 1018.6
20210517234834 66 5 0.0 0.0 0.00 0.00 0.00 48 1018.6
20210517234320 66 5 0.0 0.0 0.00 0.00 0.00 49 1018.6
20210517233827 66 5 0.0 0.0 0.00 0.00 0.00 49 1018.6
20210517233333 66 5 0.0 0.0 0.00 0.00 0.00 50 1018.6
20210517232819 67 5 0.0 0.0 0.00 0.00 0.00 49 1018.5
20210517232327 67 5 0.0 0.0 0.00 0.00 0.00 49 1018.6
20210517231817 67 5 0.0 0.0 0.00 0.00 0.00 49 1018.7
20210517231324 67 5 0.0 0.9 0.00 0.00 0.00 49 1018.7
20210517230830 66 5 0.0 0.9 0.00 0.00 0.00 50 1018.8
20210517230316 66 5 0.0 0.9 0.00 0.00 0.00 50 1018.7
20210517225822 66 5 0.0 0.0 0.00 0.00 0.00 51 1018.7
20210517225329 65 5 0.0 0.9 0.00 0.00 0.00 51 1018.6
20210517224835 65 5 0.0 0.9 0.00 0.00 0.00 50 1018.7
20210517224320 66 5 0.0 0.9 0.00 0.00 0.00 50 1018.7
20210517223826 66 5 0.0 0.9 0.00 0.00 0.00 48 1018.8
20210517223331 67 5 0.0 0.0 0.00 0.00 0.00 49 1018.8
20210517222822 66 5 0.0 1.7 0.00 0.00 0.00 48 1018.9
20210517222328 67 5 0.0 3.5 0.00 0.00 0.00 47 1018.9
20210517221835 68 360 0.9 3.5 0.00 0.00 0.00 46 1018.8
20210517221320 70 5 0.0 0.9 0.00 0.00 0.00 43 1018.7
20210517220826 70 5 0.0 0.0 0.00 0.00 0.00 42 1018.6
20210517220334 70 5 0.0 1.7 0.00 0.00 0.00 38 1018.6
20210517215819 71 5 0.0 1.7 0.00 0.00 0.00 29 1018.7
20210517215324 71 5 0.0 1.7 0.00 0.00 0.00 32 1018.6
20210517214831 71 5 0.0 0.9 0.00 0.00 0.00 31 1018.6
20210517214320 70 5 0.0 0.0 0.00 0.00 0.00 30 1018.7
20210517213826 70 5 0.0 0.0 0.00 0.00 0.00 32 1018.7
20210517213330 69 5 0.0 0.0 0.00 0.00 0.00 30 1018.7
20210517212816 69 5 0.0 0.9 0.00 0.00 0.00 33 1018.7
20210517212323 69 5 0.0 0.9 0.00 0.00 0.00 32 1018.7
20210517211829 69 5 0.0 0.9 0.00 0.00 0.00 32 1018.6
20210517211335 69 5 0.0 0.9 0.00 0.00 0.00 32 1018.6
20210517210821 69 5 0.0 0.9 0.00 0.00 0.00 32 1018.7
20210517210326 69 5 0.0 0.9 0.00 0.00 0.00 32 1018.7
20210517205832 69 5 0.0 0.0 0.00 0.00 0.00 31 1018.7
20210517205323 70 5 0.0 0.9 0.00 0.00 0.00 30 1018.7
20210517204828 70 5 0.0 0.9 0.00 0.00 0.00 31 1018.7
20210517204334 70 5 0.0 0.0 0.00 0.00 0.00 32 1018.7
20210517203820 69 5 0.0 0.0 0.00 0.00 0.00 32 1018.7
20210517203327 69 5 0.0 0.0 0.00 0.00 0.00 33 1018.7
20210517202831 69 5 0.0 0.0 0.00 0.00 0.00 33 1018.7
20210517202317 69 5 0.0 0.9 0.00 0.00 0.00 32 1018.7
20210517201823 69 5 0.0 0.9 0.00 0.00 0.00 34 1018.6
20210517201328 69 5 0.0 0.9 0.00 0.00 0.00 33 1018.6